• Em Portugal
  • Lista de países
  • Para 7 dias
  • Temperatura da água
  • Mapas de satélite
  • Mapa do tempo
  • Widgets de tempo
  • user-avatar
    Iniciar Sessão

    Previsão horária em Castlebar

    Hoje, 13 Novembro, Terça-feira

    Tempo Temperatura Precipitação Vento Pressão Humidade
    00:00 +7°C° 0 mm 6 m/s 750 mmHg 88%
    01:00 +7°C° 0 mm 5 m/s 751 mmHg 89%
    02:00 +7°C° 0 mm 5 m/s 752 mmHg 89%
    03:00 +7°C° 0 mm 5 m/s 752 mmHg 89%
    04:00 +7°C° 0 mm 4 m/s 753 mmHg 89%
    05:00 +7°C° 0 mm 4 m/s 753 mmHg 89%
    06:00 +7°C° 0 mm 5 m/s 753 mmHg 90%
    07:00 +7°C° 0 mm 5 m/s 754 mmHg 90%
    08:00 +7°C° 0 mm 5 m/s 754 mmHg 90%
    09:00 +8°C° 0 mm 6 m/s 754 mmHg 87%
    10:00 +9°C° 0 mm 7 m/s 754 mmHg 83%
    11:00 +10°C° 0 mm 8 m/s 754 mmHg 80%
    12:00 +10°C° 0 mm 8 m/s 753 mmHg 81%
    13:00 +10°C° 0 mm 8 m/s 753 mmHg 82%
    14:00 +10°C° 0 mm 8 m/s 753 mmHg 82%
    15:00 +10°C° 0.6 mm 8 m/s 752 mmHg 84%
    16:00 +10°C° 0.6 mm 8 m/s 751 mmHg 87%
    17:00 +10°C° 0.6 mm 9 m/s 750 mmHg 89%
    18:00 +11°C° 1.9 mm 9 m/s 749 mmHg 89%
    19:00 +11°C° 1.9 mm 10 m/s 748 mmHg 90%
    20:00 +11°C° 1.9 mm 10 m/s 748 mmHg 91%
    21:00 +12°C° 0.2 mm 9 m/s 747 mmHg 92%
    22:00 +12°C° 0.2 mm 8 m/s 747 mmHg 93%
    23:00 +14°C° 0.2 mm 7 m/s 747 mmHg 94%

    Amanhã, 14 Novembro, Quarta-feira

    Tempo Temperatura Precipitação Vento Pressão Humidade
    00:00 +13°C° 1.7 mm 8 m/s 747 mmHg 93%
    01:00 +13°C° 1.7 mm 9 m/s 747 mmHg 92%
    02:00 +13°C° 1.7 mm 10 m/s 747 mmHg 91%
    03:00 +13°C° 0.5 mm 10 m/s 747 mmHg 91%
    04:00 +13°C° 0.5 mm 10 m/s 747 mmHg 90%
    05:00 +13°C° 0.5 mm 10 m/s 747 mmHg 89%
    06:00 +13°C° 0.8 mm 10 m/s 747 mmHg 89%
    07:00 +13°C° 0.8 mm 11 m/s 747 mmHg 89%
    08:00 +13°C° 0.8 mm 12 m/s 747 mmHg 88%
    09:00 +13°C° 0.2 mm 11 m/s 747 mmHg 88%
    10:00 +13°C° 0.2 mm 11 m/s 748 mmHg 88%
    11:00 +14°C° 0.2 mm 10 m/s 748 mmHg 88%
    12:00 +14°C° 0 mm 10 m/s 749 mmHg 88%
    13:00 +15°C° 0 mm 9 m/s 749 mmHg 87%
    14:00 +15°C° 0 mm 9 m/s 749 mmHg 86%
    15:00 +13°C° 0.2 mm 9 m/s 749 mmHg 87%
    16:00 +13°C° 0.2 mm 9 m/s 749 mmHg 88%
    17:00 +13°C° 0.2 mm 9 m/s 750 mmHg 88%
    18:00 +13°C° 0.1 mm 9 m/s 750 mmHg 88%
    19:00 +13°C° 0.1 mm 9 m/s 750 mmHg 89%
    20:00 +13°C° 0.1 mm 9 m/s 750 mmHg 89%
    21:00 +12°C° 0 mm 9 m/s 749 mmHg 87%
    22:00 +12°C° 0 mm 10 m/s 749 mmHg 86%
    23:00 +12°C° 0 mm 10 m/s 749 mmHg 85%

    Depois de amanhã, 15 Novembro, Quinta-feira

    Tempo Temperatura Precipitação Vento Pressão Humidade
    00:00 +12°C° 0.3 mm 10 m/s 749 mmHg 85%
    01:00 +12°C° 0.3 mm 9 m/s 750 mmHg 86%
    02:00 +11°C° 0.3 mm 9 m/s 750 mmHg 86%
    03:00 +11°C° 0.6 mm 8 m/s 750 mmHg 88%
    04:00 +11°C° 0.6 mm 7 m/s 750 mmHg 89%
    05:00 +11°C° 0.6 mm 6 m/s 750 mmHg 91%
    06:00 +11°C° 0.7 mm 6 m/s 750 mmHg 92%
    07:00 +12°C° 0.7 mm 5 m/s 750 mmHg 92%
    08:00 +12°C° 0.7 mm 5 m/s 751 mmHg 93%
    09:00 +11°C° 1.1 mm 6 m/s 750 mmHg 91%
    10:00 +11°C° 1.1 mm 6 m/s 750 mmHg 90%
    11:00 +11°C° 1.1 mm 6 m/s 750 mmHg 89%
    12:00 +11°C° 0.9 mm 7 m/s 751 mmHg 88%
    13:00 +10°C° 0.9 mm 7 m/s 751 mmHg 87%
    14:00 +10°C° 0.9 mm 7 m/s 751 mmHg 86%
    15:00 +9°C° 0.1 mm 7 m/s 752 mmHg 85%
    16:00 +9°C° 0.1 mm 6 m/s 752 mmHg 84%
    17:00 +8°C° 0.1 mm 6 m/s 753 mmHg 83%
    18:00 +8°C° 0 mm 6 m/s 754 mmHg 84%
    19:00 +8°C° 0 mm 5 m/s 755 mmHg 85%
    20:00 +7°C° 0 mm 5 m/s 755 mmHg 86%
    21:00 +7°C° 0 mm 5 m/s 756 mmHg 87%
    22:00 +7°C° 0 mm 5 m/s 756 mmHg 87%
    23:00 +6°C° 0 mm 5 m/s 756 mmHg 88%

    16 Novembro, Sexta-feira

    Tempo Temperatura Precipitação Vento Pressão Humidade
    00:00 +6°C° 0 mm 5 m/s 756 mmHg 89%
    01:00 +6°C° 0 mm 5 m/s 756 mmHg 89%
    02:00 +6°C° 0 mm 5 m/s 756 mmHg 89%
    03:00 +5°C° 0 mm 6 m/s 756 mmHg 89%
    04:00 +5°C° 0 mm 6 m/s 756 mmHg 90%
    05:00 +5°C° 0 mm 6 m/s 756 mmHg 90%
    06:00 +6°C° 0 mm 7 m/s 756 mmHg 91%
    07:00 +8°C° 0 mm 7 m/s 756 mmHg 92%
    08:00 +7°C° 0 mm 8 m/s 755 mmHg 93%
    09:00 +10°C° 0 mm 8 m/s 756 mmHg 90%
    10:00 +11°C° 0 mm 9 m/s 756 mmHg 87%
    11:00 +13°C° 0 mm 9 m/s 756 mmHg 84%
    12:00 +13°C° 0 mm 9 m/s 755 mmHg 83%
    13:00 +13°C° 0 mm 9 m/s 755 mmHg 81%
    14:00 +15°C° 0 mm 8 m/s 755 mmHg 79%
    15:00 +13°C° 0 mm 8 m/s 755 mmHg 82%
    16:00 +12°C° 0 mm 8 m/s 755 mmHg 85%
    17:00 +11°C° 0 mm 8 m/s 756 mmHg 88%
    18:00 +11°C° 0 mm 8 m/s 756 mmHg 88%
    19:00 +11°C° 0 mm 8 m/s 756 mmHg 89%
    20:00 +12°C° 0 mm 9 m/s 756 mmHg 90%
    21:00 +12°C° 0 mm 9 m/s 756 mmHg 89%
    22:00 +12°C° 0 mm 9 m/s 756 mmHg 89%
    23:00 +12°C° 0 mm 8 m/s 756 mmHg 88%

    17 Novembro, Sábado

    Tempo Temperatura Precipitação Vento Pressão Humidade
    00:00 +12°C° 0 mm 9 m/s 756 mmHg 88%
    01:00 +12°C° 0 mm 9 m/s 756 mmHg 88%
    02:00 +12°C° 0 mm 9 m/s 757 mmHg 87%
    03:00 +12°C° 0 mm 8 m/s 757 mmHg 88%
    04:00 +12°C° 0 mm 8 m/s 757 mmHg 89%
    05:00 +12°C° 0 mm 8 m/s 757 mmHg 89%
    06:00 +12°C° 0 mm 8 m/s 757 mmHg 89%
    07:00 +12°C° 0 mm 8 m/s 758 mmHg 88%
    08:00 +12°C° 0 mm 8 m/s 758 mmHg 87%
    09:00 +12°C° 0 mm 8 m/s 759 mmHg 86%
    10:00 +13°C° 0 mm 8 m/s 759 mmHg 84%
    11:00 +13°C° 0 mm 8 m/s 759 mmHg 83%
    12:00 +13°C° 0 mm 8 m/s 759 mmHg 83%
    13:00 +13°C° 0 mm 8 m/s 759 mmHg 83%
    14:00 +14°C° 0 mm 7 m/s 759 mmHg 83%
    15:00 +14°C° 0 mm 7 m/s 759 mmHg 85%
    16:00 +12°C° 0 mm 7 m/s 760 mmHg 87%
    17:00 +11°C° 0 mm 7 m/s 760 mmHg 88%
    18:00 +11°C° 0 mm 7 m/s 760 mmHg 88%
    19:00 +11°C° 0 mm 7 m/s 760 mmHg 88%
    20:00 +11°C° 0 mm 6 m/s 760 mmHg 87%
    21:00 +10°C° 0 mm 6 m/s 760 mmHg 88%
    22:00 +10°C° 0 mm 6 m/s 761 mmHg 89%
    23:00 +9°C° 0 mm 6 m/s 761 mmHg 90%

    18 Novembro, Domingo

    Tempo Temperatura Precipitação Vento Pressão Humidade
    00:00 +9°C° 0 mm 6 m/s 761 mmHg 90%
    01:00 +9°C° 0 mm 6 m/s 761 mmHg 90%
    02:00 +8°C° 0 mm 6 m/s 761 mmHg 90%
    03:00 +8°C° 0 mm 5 m/s 761 mmHg 89%
    04:00 +7°C° 0 mm 5 m/s 761 mmHg 88%
    05:00 +7°C° 0 mm 5 m/s 761 mmHg 87%
    06:00 +7°C° 0 mm 5 m/s 761 mmHg 86%
    07:00 +7°C° 0 mm 5 m/s 761 mmHg 86%
    08:00 +6°C° 0 mm 5 m/s 762 mmHg 85%
    09:00 +7°C° 0 mm 6 m/s 762 mmHg 81%
    10:00 +8°C° 0 mm 6 m/s 762 mmHg 78%
    11:00 +9°C° 0 mm 6 m/s 762 mmHg 74%
    12:00 +9°C° 0 mm 6 m/s 762 mmHg 74%
    13:00 +9°C° 0 mm 6 m/s 762 mmHg 73%
    14:00 +9°C° 0 mm 5 m/s 762 mmHg 73%
    15:00 +8°C° 0 mm 6 m/s 762 mmHg 76%
    16:00 +8°C° 0 mm 6 m/s 762 mmHg 79%
    17:00 +7°C° 0 mm 6 m/s 762 mmHg 82%
    18:00 +6°C° 0 mm 5 m/s 762 mmHg 83%
    19:00 +6°C° 0 mm 5 m/s 762 mmHg 84%
    20:00 +5°C° 0 mm 5 m/s 762 mmHg 85%
    21:00 +5°C° 0 mm 5 m/s 762 mmHg 85%
    22:00 +5°C° 0 mm 5 m/s 762 mmHg 85%
    23:00 +5°C° 0 mm 5 m/s 762 mmHg 86%
    Mostrar mais